• In Uzbekistan
  • List of Countries
  • For 7 days
  • Water Temperature
  • Satellite Maps
  • Weather Map
  • Weather Widgets
  • user-avatar
    Login

    Hourly Weather Rozdollya

    Today, 18 December, Monday

    Time Temperature Precipitation Wind Pressure Humidity
    00:00 +8°C° 0.5 mm 6 mps 750 mmHg 85%
    01:00 +8°C° 0.5 mm 6 mps 750 mmHg 83%
    02:00 +7°C° 0 mm 6 mps 749 mmHg 79%
    03:00 +7°C° 0.7 mm 6 mps 749 mmHg 80%
    04:00 +7°C° 0.7 mm 6 mps 749 mmHg 82%
    05:00 +5°C° 0.7 mm 6 mps 748 mmHg 83%
    06:00 +5°C° 0.7 mm 6 mps 748 mmHg 84%
    07:00 +7°C° 0.7 mm 6 mps 748 mmHg 86%
    08:00 +6°C° 0 mm 8 mps 747 mmHg 86%
    09:00 +6°C° 0.6 mm 8 mps 747 mmHg 86%
    10:00 +6°C° 0.6 mm 8 mps 747 mmHg 86%
    11:00 +7°C° 0.6 mm 8 mps 747 mmHg 86%
    12:00 +7°C° 0 mm 8 mps 747 mmHg 85%
    13:00 +7°C° 0 mm 8 mps 747 mmHg 83%
    14:00 +7°C° 0 mm 8 mps 747 mmHg 82%
    15:00 +6°C° 0 mm 8 mps 748 mmHg 79%
    16:00 +5°C° 0 mm 8 mps 749 mmHg 77%
    17:00 +4°C° 0 mm 8 mps 749 mmHg 75%
    18:00 +4°C° 0 mm 7 mps 750 mmHg 74%
    19:00 +3°C° 0 mm 7 mps 750 mmHg 73%
    20:00 +3°C° 0 mm 6 mps 751 mmHg 73%
    21:00 +2°C° 0 mm 6 mps 752 mmHg 73%
    22:00 +2°C° 0 mm 6 mps 752 mmHg 73%
    23:00 +1°C° 0 mm 6 mps 752 mmHg 73%

    Tomorrow, 19 December, Tuesday

    Time Temperature Precipitation Wind Pressure Humidity
    00:00 +1°C° 0 mm 6 mps 753 mmHg 73%
    01:00 -1°C° 0 mm 6 mps 753 mmHg 73%
    02:00 0°C° 0 mm 5 mps 753 mmHg 73%
    03:00 0°C° 0 mm 5 mps 753 mmHg 74%
    04:00 -1°C° 0 mm 4 mps 754 mmHg 74%
    05:00 -1°C° 0 mm 4 mps 754 mmHg 75%
    06:00 -1°C° 0 mm 4 mps 754 mmHg 76%
    07:00 -2°C° 0 mm 4 mps 755 mmHg 77%
    08:00 -1°C° 0 mm 3 mps 755 mmHg 78%
    09:00 -1°C° 0 mm 4 mps 755 mmHg 74%
    10:00 -1°C° 0 mm 4 mps 756 mmHg 71%
    11:00 0°C° 0 mm 5 mps 756 mmHg 67%
    12:00 0°C° 0 mm 5 mps 756 mmHg 67%
    13:00 0°C° 0 mm 5 mps 756 mmHg 66%
    14:00 0°C° 0 mm 4 mps 756 mmHg 66%
    15:00 0°C° 0 mm 4 mps 756 mmHg 67%
    16:00 0°C° 0 mm 4 mps 757 mmHg 69%
    17:00 -1°C° 0 mm 4 mps 757 mmHg 70%
    18:00 -1°C° 0 mm 4 mps 757 mmHg 71%
    19:00 0°C° 0 mm 3 mps 757 mmHg 72%
    20:00 0°C° 0 mm 3 mps 758 mmHg 73%
    21:00 0°C° 0 mm 3 mps 758 mmHg 74%
    22:00 -1°C° 0 mm 3 mps 758 mmHg 76%
    23:00 -1°C° 0 mm 3 mps 758 mmHg 77%

    Day after tomorrow, 20 December, Wednesday

    Time Temperature Precipitation Wind Pressure Humidity
    00:00 -1°C° 0 mm 3 mps 758 mmHg 79%
    01:00 -2°C° 0 mm 3 mps 759 mmHg 80%
    02:00 -2°C° 0 mm 3 mps 759 mmHg 81%
    03:00 -2°C° 0 mm 3 mps 759 mmHg 82%
    04:00 -2°C° 0 mm 3 mps 759 mmHg 82%
    05:00 -2°C° 0 mm 3 mps 759 mmHg 83%
    06:00 -2°C° 0 mm 3 mps 760 mmHg 83%
    07:00 -2°C° 0 mm 2 mps 760 mmHg 83%
    08:00 -2°C° 0 mm 2 mps 760 mmHg 83%
    09:00 -2°C° 0 mm 2 mps 761 mmHg 78%
    10:00 -1°C° 0 mm 3 mps 761 mmHg 73%
    11:00 0°C° 0 mm 3 mps 761 mmHg 68%
    12:00 0°C° 0 mm 3 mps 761 mmHg 67%
    13:00 0°C° 0 mm 3 mps 761 mmHg 65%
    14:00 +1°C° 0 mm 2 mps 761 mmHg 64%
    15:00 +1°C° 0 mm 2 mps 761 mmHg 66%
    16:00 -1°C° 0 mm 2 mps 762 mmHg 69%
    17:00 +1°C° 0 mm 1 mps 762 mmHg 71%
    18:00 +1°C° 0 mm 1 mps 762 mmHg 71%
    19:00 +1°C° 0 mm 1 mps 763 mmHg 71%
    20:00 0°C° 0 mm 1 mps 763 mmHg 71%
    21:00 0°C° 0 mm 1 mps 763 mmHg 71%
    22:00 0°C° 0 mm 1 mps 763 mmHg 71%
    23:00 0°C° 0 mm 1 mps 764 mmHg 71%

    21 December, Thursday

    Time Temperature Precipitation Wind Pressure Humidity
    00:00 0°C° 0 mm 1 mps 764 mmHg 71%
    01:00 0°C° 0 mm 1 mps 764 mmHg 71%
    02:00 0°C° 0 mm 1 mps 764 mmHg 71%
    03:00 0°C° 0 mm 1 mps 764 mmHg 70%
    04:00 0°C° 0 mm 1 mps 764 mmHg 70%
    05:00 0°C° 0 mm 1 mps 764 mmHg 69%
    06:00 0°C° 0 mm 1 mps 764 mmHg 68%
    07:00 0°C° 0 mm 1 mps 765 mmHg 67%
    08:00 0°C° 0 mm 1 mps 765 mmHg 66%
    09:00 0°C° 0 mm 1 mps 765 mmHg 62%
    10:00 -1°C° 0 mm 2 mps 765 mmHg 57%
    11:00 +1°C° 0 mm 2 mps 764 mmHg 53%
    12:00 +1°C° 0 mm 2 mps 764 mmHg 53%
    13:00 +1°C° 0 mm 2 mps 764 mmHg 53%
    14:00 +1°C° 0 mm 2 mps 763 mmHg 53%
    15:00 -1°C° 0 mm 2 mps 763 mmHg 58%
    16:00 -1°C° 0 mm 2 mps 763 mmHg 62%
    17:00 0°C° 0 mm 1 mps 763 mmHg 67%
    18:00 0°C° 0 mm 1 mps 763 mmHg 68%
    19:00 0°C° 0 mm 1 mps 763 mmHg 70%
    20:00 0°C° 0 mm 1 mps 762 mmHg 71%
    21:00 -2°C° 0 mm 2 mps 762 mmHg 72%
    22:00 -3°C° 0 mm 2 mps 762 mmHg 73%
    23:00 -3°C° 0 mm 2 mps 761 mmHg 74%

    22 December, Friday

    Time Temperature Precipitation Wind Pressure Humidity
    00:00 -3°C° 0 mm 2 mps 761 mmHg 74%
    01:00 -1°C° 0 mm 1 mps 760 mmHg 75%
    02:00 -1°C° 0 mm 1 mps 760 mmHg 75%
    03:00 -1°C° 0 mm 1 mps 760 mmHg 75%
    04:00 -1°C° 0 mm 1 mps 759 mmHg 75%
    05:00 -1°C° 0 mm 1 mps 759 mmHg 75%
    06:00 -1°C° 0 mm 1 mps 759 mmHg 75%
    07:00 -3°C° 0 mm 2 mps 758 mmHg 75%
    08:00 -3°C° 0 mm 2 mps 758 mmHg 74%
    09:00 -3°C° 0 mm 2 mps 758 mmHg 70%
    10:00 -2°C° 0 mm 3 mps 758 mmHg 66%
    11:00 -1°C° 0 mm 3 mps 757 mmHg 61%
    12:00 -2°C° 0 mm 4 mps 757 mmHg 61%
    13:00 -2°C° 0 mm 4 mps 756 mmHg 60%
    14:00 -2°C° 0 mm 4 mps 756 mmHg 60%
    15:00 -2°C° 0 mm 4 mps 756 mmHg 63%
    16:00 -3°C° 0 mm 4 mps 755 mmHg 65%
    17:00 -2°C° 0 mm 3 mps 755 mmHg 68%
    18:00 -3°C° 0 mm 4 mps 755 mmHg 69%
    19:00 -3°C° 0 mm 4 mps 754 mmHg 71%
    20:00 -3°C° 0 mm 4 mps 754 mmHg 73%
    21:00 -3°C° 0 mm 4 mps 754 mmHg 75%
    22:00 -4°C° 0 mm 5 mps 753 mmHg 77%
    23:00 -4°C° 0 mm 5 mps 753 mmHg 79%

    23 December, Saturday

    Time Temperature Precipitation Wind Pressure Humidity
    00:00 -4°C° 0 mm 5 mps 752 mmHg 79%
    01:00 -4°C° 0 mm 5 mps 752 mmHg 79%
    02:00 -4°C° 0 mm 5 mps 752 mmHg 79%
    03:00 -4°C° 0 mm 5 mps 751 mmHg 81%
    04:00 -4°C° 0 mm 5 mps 751 mmHg 84%
    05:00 -4°C° 0 mm 5 mps 751 mmHg 86%
    06:00 -4°C° 0 mm 5 mps 751 mmHg 86%
    07:00 -4°C° 0 mm 5 mps 750 mmHg 86%
    08:00 -4°C° 0 mm 5 mps 750 mmHg 87%
    09:00 -2°C° 0 mm 5 mps 750 mmHg 83%
    10:00 -2°C° 0 mm 5 mps 750 mmHg 78%
    11:00 -2°C° 0 mm 6 mps 750 mmHg 74%
    12:00 -1°C° 0 mm 5 mps 750 mmHg 73%
    13:00 0°C° 0 mm 5 mps 750 mmHg 72%
    14:00 0°C° 0 mm 4 mps 749 mmHg 72%
    15:00 -1°C° 0 mm 4 mps 750 mmHg 76%
    16:00 0°C° 0 mm 3 mps 750 mmHg 80%
    17:00 -1°C° 0 mm 2 mps 750 mmHg 84%
    18:00 -1°C° 0 mm 2 mps 750 mmHg 85%
    19:00 -1°C° 0 mm 2 mps 750 mmHg 86%
    20:00 -2°C° 0 mm 3 mps 750 mmHg 86%
    21:00 -2°C° 0 mm 3 mps 751 mmHg 85%
    22:00 -2°C° 0 mm 3 mps 751 mmHg 84%
    23:00 -4°C° 0 mm 3 mps 751 mmHg 82%
    Show more